Terminal Aerodrome Forecast
Issued by NWS

Home | Current Version | Previous Version | Text Only | Print | Product List | Glossary On
Versions: 1 2 3 4 5 6 7 8 9 10 11 12 13 14 15 16 17 18 19 20 21 22 23 24 25 26 27 28 29 30 31 32 33 34 35
000
FTUS43 KGRR 212300
TAFMKG
TAF
KMKG 212332Z 2200/2224 23006KT P6SM BKN110
     FM220300 15003KT P6SM OVC050
     FM220900 18003KT 4SM BR OVC007
     FM221200 12002KT 1 1/2SM BR OVC007
     FM221500 16004KT 2SM BR OVC015
     FM221800 22006KT P6SM BKN050=

USA.gov is the U.S. government's official web portal to all federal, state and local government web resources and services.